Aérodrome :
LOGIN :

S'inscrire | Disclaimer

   EN    FR    IT 

 










Légende :    VFR   VFR Marginal   IFR   IFR Intensif   IFR Très Intensif
Visi : 
Plafond : 
>= 8 km
>= 3000ft
5 à 8 km
1000 à 3000 ft
1500m à 5 km
500 à 1000 ft
800 à 1500m
200 à 500 ft
< 800m
< 200 ft
Symboles :   Orages  Brouillard  Fortes neiges  Fortes précipitations  Vent > 20 kt
SIGMETs :   Divers  Orages  Givrage  Turbulence  Onde Orograph.  Cendres Volcan.







- Altitude de l'aérodrome : 24 ft
- Code IATA : FAO


LPFR - Faro

DERNIER METAR :
  • 221800Z 26005KT CAVOK 27/19 Q1018

METARs EXPIRÉS :
  • 221730Z 25005KT CAVOK 27/18 Q1018
  • 221700Z 23005KT 210V270 CAVOK 28/18 Q1018
  • 221630Z 17003KT 130V210 CAVOK 29/19 Q1018
  • 221600Z 16004KT 130V190 CAVOK 29/19 Q1018

TAF TAF LPFR
Valide du 22 à 18h jusqu'au 23 à 18h UTC


221700Z 2218/2318 24007KT CAVOK
BECMG 2218/2221 33005KT
BECMG 2300/2303 VRB03KT
BECMG 2306/2309 09010KT
BECMG 2310/2313 16010KT
BECMG 2314/2316 25010KT
Pas de NOTAMs connus pour ce terrain.



MET'MAP, la Météo Aéronautique d'un coup d'oeil ! - Copyright ORBIFLY Décembre 2007 - Disclaimer

ORBIFLY MET'MAP TEAM :

Programmation & Développement : Alexandra Zaïnal
Conception & Développement : Baudouin d'Aumeries
Co-Programmation & Développement : Marc-Olivier Méhu
Soutien technique & logistique : Manuel Goepfert

Contact : metmap@orbifly.com




SOURCES & CREDITS :

   NOAA